Powrót do katalogu

STARLINK-37405

AktywnyŁącznośćSSO
NORAD 68809·PAYLOAD·🇺🇸 United States

Wystrzelony Apr 23, 2026 z Vandenberg Space Force Base

Loading…

Następne Przeloty (najbliższe 24 godziny)

TLE

ŚwieżeSource: CelesTrak SupGP

Epoka: Sep 14, 2026, 23:35 UTC

1 68809C 26089H   26257.98312500  .00080767  00000+0  25069-2 0  2574
2 68809  97.2851 103.7850 0001697  97.4268 173.9893 15.33400873    13

Śledź STARLINK-37405 w czasie rzeczywistym z AllMySat

Download on the App Store